CZ-6A DEB, 56627

Orbit data source: Space-Track

CZ-6A DEB, 56627 is space debris in SSO originally from a launch on Fri, 11 Nov 2022 UTC launched from the Taiyaun Space Center, China (TSC). Debris objects in space refer to the collection of defunct objects orbiting the Earth. Examples of debris include non-operational satellites, rocket bodies, and fragments generated from explosions, collisions, or faulty payload assembly.

Loading next visibility...
Identifier
56627, 2022-151AFB
Orbit
SSO
Country
Flag of CNCN / PRC
Related business
Manufacturer
SAST
Mission
Spacecraft
Bus & Motor
Unknown
Mass
Unknown
Launch date (UTC)
2022-11-11 (4 years ago)
Launch vehicle
Unknown
Launch site
Taiyaun Space Center, China (TSC)
Object type
Payload
Rocket body
Debris
Shape & HBR
Unknown shape, 0.1 m
Radar Cross Section
Small (<0.1 m²)

Expand to show TLE details & history
Last TLE update: 2 days ago

TLE from 2 days ago
0 CZ-6A DEB
1 56627U 22151AFB 26219.81591526  .00001157  00000-0  55761-3 0  9995
2 56627  98.8245 231.9990 0036890 156.2494 204.0395 14.20315602179075
Epoch: 2026-08-07T19:34Z
TLE epoch observation values (Epoch: 2026-08-07T19:34:55.078Z)
Latitude
-0°
Longitude
-18.06668°
Altitude
851.483 km
Speed
7.414 km/s
True Right ascension
15h 27m 59s
True Declination
0° 00' 00"
Sunlit
Object was in daylight at epoch
Visualization orbit readout
Latitude
Unknown
Longitude
Unknown
Altitude
Unknown
Speed
Unknown
Apparent Right ascension
Unknown
Apparent Declination
Unknown
Sunlit
N/A
Visualization observer readout
Local Sidereal Time
15:17:12
Azimuth
Unknown
Elevation
Unknown
Doppler factor
Unknown
Orbital elements
Apogee altitude
848.009 km
Perigee altitude
794.89 km
Semi-major axis
7,199.586 km
Eccentricity
0.00369
Inclination
98.8245°
RAAN
231.999°
Arg. of periapsis
156.2494°
True anomaly
203.86802°
Mean anomaly
204.0395°
Eccentric anomaly
203.95369°
Mean motion
3.55289 °/min
Orbital period
101.33 mins
BSTAR
0.00055761
Loading maneuver chart data...
Computing Atmospheric mass density...
Loading historical data...
Loading historical data...
Loading historical data...
Loading historical data...
Loading historical data...
Loading historical data...
Loading historical data...

Documentation

Showing up to 5 results
|